(431094) = 2006 DD165

Discovered at Kitt Peak on 2006-02-27 by Spacewatch.

Orbit

Orbit type: Main Belt

Note: WebGL enabled browser required.

epoch2024-03-31.0
epoch JD2460400.5
perihelion date2021-02-26.19404
perihelion JD2459271.69404
argument of perihelion (°)170.74043
ascending node (°)134.00979
inclination (°)4.91307
eccentricity0.0176893
perihelion distance (AU)2.6579256
Tisserand w.r.t. Jupiter3.4
ΔV w.r.t. Earth (km/sec)10.3
semimajor axis (AU)2.7057890
mean anomaly (°)249.96689
mean daily motion (°/day)0.22144360
aphelion distance (AU)2.754
period (years)4.45
P-vector [x]0.57042506
P-vector [y]-0.75894918
P-vector [z]-0.31402451
Q-vector [x]0.81903666
Q-vector [y]0.55427642
Q-vector [z]0.14817760
absolute magnitude17.38
phase slope0.15
uncertainty0
referenceE2024-GJ9
observations used176
oppositions12
arc length (days)6619
first opposition used2006
last opposition used2024
residual rms (arc-secs)0.76
perturbers coarse indicatorM-v
perturbers precise indicator003Ek
first observation date used2006-02-27.0
last observation date used2024-04-12.0
computer nameMPCLINUX
Minimum Orbit Intersection Distances (in AU)
for orbit epoch: 2460400.5, reference: E2024-GJ9
Mercury2.20719
Venus1.93133
Earth1.64262
Mars1.07858
Jupiter2.26832
Saturn6.30006
Uranus15.6976
Neptune27.1205

Observations

166 total observations over interval: 2006 02 27.32652 – 2022 12 17.348477
These data are available for download (format description).

Date (UT) J2000 RA J2000 Dec Magn Location Ref
2006 02 27.32652 11 55 45.79 +05 18 42.0 21.3 V 691 – Steward Observatory, Kitt Peak-Spacewatch MPS 166341
2006 02 27.34384 11 55 45.06 +05 18 48.6 21.2 V 691 – Steward Observatory, Kitt Peak-Spacewatch MPS 166341
2006 02 27.36116 11 55 44.31 +05 18 55.8 21.5 V 691 – Steward Observatory, Kitt Peak-Spacewatch MPS 166341
2006 03 03.32749 11 52 57.09 +05 45 37.0   691 – Steward Observatory, Kitt Peak-Spacewatch MPS 166341
2006 03 03.34480 11 52 56.28 +05 45 44.0   691 – Steward Observatory, Kitt Peak-Spacewatch MPS 166341
2006 03 03.36214 11 52 55.51 +05 45 51.0   691 – Steward Observatory, Kitt Peak-Spacewatch MPS 166341
2006 03 04.33065 11 52 12.75 +05 52 28.3 20.9 V G96 – Mt. Lemmon Survey MPS 284385
2006 03 04.33793 11 52 12.43 +05 52 30.8 20.6 V G96 – Mt. Lemmon Survey MPS 284385
2006 03 04.34529 11 52 12.07 +05 52 33.6 20.8 V G96 – Mt. Lemmon Survey MPS 284385
2006 03 04.35241 11 52 11.74 +05 52 37.2 21.0 V G96 – Mt. Lemmon Survey MPS 284385
2008 09 21.35809 02 14 55.99 +06 24 17.1 21.4 V 691 – Steward Observatory, Kitt Peak-Spacewatch MPS 284385
2008 09 21.37566 02 14 55.48 +06 24 12.6 21.0 V 691 – Steward Observatory, Kitt Peak-Spacewatch MPS 284385
2008 09 21.39323 02 14 55.03 +06 24 07.6 21.5 V 691 – Steward Observatory, Kitt Peak-Spacewatch MPS 284385
2008 09 29.30156 02 10 51.09 +05 44 43.3   691 – Steward Observatory, Kitt Peak-Spacewatch MPS 284385
2008 09 29.31912 02 10 50.45 +05 44 38.1   691 – Steward Observatory, Kitt Peak-Spacewatch MPS 284385
2008 09 29.33667 02 10 49.81 +05 44 32.4   691 – Steward Observatory, Kitt Peak-Spacewatch MPS 284385
2008 09 29.38800 02 10 47.86 +05 44 16.2   291 – LPL/Spacewatch II MPS 284385
2008 09 29.39174 02 10 47.70 +05 44 15.0   291 – LPL/Spacewatch II MPS 284385
2008 09 29.39555 02 10 47.53 +05 44 13.7   291 – LPL/Spacewatch II MPS 284385
2008 10 21.35391 01 54 08.31 +03 44 15.3 20.4 V G96 – Mt. Lemmon Survey MPS 284385
2008 10 21.35914 01 54 08.10 +03 44 14.3 20.4 V G96 – Mt. Lemmon Survey MPS 284385
2008 10 21.36434 01 54 07.81 +03 44 12.3 21.0 V G96 – Mt. Lemmon Survey MPS 284385
2008 10 21.36954 01 54 07.48 +03 44 10.6 20.1 V G96 – Mt. Lemmon Survey MPS 284385
2011 05 26.26154 15 09 09.39 -09 45 33.9 20.6 V G96 – Mt. Lemmon Survey MPS 429359
2011 05 26.27120 15 09 08.89 -09 45 32.4 20.6 V G96 – Mt. Lemmon Survey MPS 429359
2011 05 26.28086 15 09 08.46 -09 45 31.4 20.6 V G96 – Mt. Lemmon Survey MPS 429359
2011 05 26.29058 15 09 07.99 -09 45 30.3 20.3 V G96 – Mt. Lemmon Survey MPS 429359
2012 08 08.51180 23 06 27.343 -08 32 08.48 21.1 i F51 – Pan-STARRS 1, Haleakala MPS 429037
2012 08 08.52323 23 06 26.974 -08 32 12.12 21.0 i F51 – Pan-STARRS 1, Haleakala MPS 429037
2013 12 25.30707 05 27 04.71 +17 34 18.6 20.8 V G96 – Mt. Lemmon Survey MPS 492027
2013 12 25.31751 05 27 04.11 +17 34 19.6 20.4 V G96 – Mt. Lemmon Survey MPS 492027
2013 12 25.32794 05 27 03.48 +17 34 20.1 21.1 V G96 – Mt. Lemmon Survey MPS 492027
2013 12 25.33840 05 27 02.90 +17 34 20.4 21.0 V G96 – Mt. Lemmon Survey MPS 492027
2014 01 03.25211 05 19 15.69 +17 44 14.6 20.7 V G96 – Mt. Lemmon Survey MPS 493439
2014 01 03.25735 05 19 15.44 +17 44 14.9 20.9 V G96 – Mt. Lemmon Survey MPS 493439
2014 01 03.26261 05 19 15.18 +17 44 15.4 21.6 V G96 – Mt. Lemmon Survey MPS 493439
2014 01 03.26786 05 19 14.92 +17 44 15.8 21.5 V G96 – Mt. Lemmon Survey MPS 493439
2015 03 22.34671 12 24 57.27 +03 39 35.8 21.1 V G96 – Mt. Lemmon Survey MPS 592360
2015 03 22.35132 12 24 57.07 +03 39 38.1 20.6 V G96 – Mt. Lemmon Survey MPS 592360
2015 03 22.35590 12 24 56.82 +03 39 39.8 20.8 V G96 – Mt. Lemmon Survey MPS 592360
2015 03 22.36048 12 24 56.57 +03 39 41.1 20.8 V G96 – Mt. Lemmon Survey MPS 592360
2015 03 23.48121 12 24 02.736 +03 47 08.00 20.9 w F51 – Pan-STARRS 1, Haleakala MPS 592360
2015 03 23.48317 12 24 02.632 +03 47 08.67 20.9 w F51 – Pan-STARRS 1, Haleakala MPS 592360
2015 03 23.49377 12 24 02.105 +03 47 12.91 20.9 w F51 – Pan-STARRS 1, Haleakala MPS 592360
2015 03 23.49573 12 24 02.010 +03 47 13.76 20.9 w F51 – Pan-STARRS 1, Haleakala MPS 592360
2015 03 23.50635 12 24 01.477 +03 47 17.91 21.0 w F51 – Pan-STARRS 1, Haleakala MPS 592360
2015 03 23.50832 12 24 01.372 +03 47 18.61 21.0 w F51 – Pan-STARRS 1, Haleakala MPS 592360
2015 03 23.51890 12 24 00.844 +03 47 22.73 21.0 w F51 – Pan-STARRS 1, Haleakala MPS 592360
2015 03 23.52088 12 24 00.747 +03 47 23.53 20.8 w F51 – Pan-STARRS 1, Haleakala MPS 592360
2015 03 24.41786 12 23 17.649 +03 53 18.06 21.0 w F51 – Pan-STARRS 1, Haleakala MPS 592360
2015 03 24.43232 12 23 16.919 +03 53 23.78 20.9 w F51 – Pan-STARRS 1, Haleakala MPS 592360
2015 03 24.44678 12 23 16.198 +03 53 29.24 20.9 w F51 – Pan-STARRS 1, Haleakala MPS 592360
2015 03 24.46132 12 23 15.460 +03 53 35.14 20.9 w F51 – Pan-STARRS 1, Haleakala MPS 592360
2015 03 25.27509 12 22 36.17 +03 58 53.5   691 – Steward Observatory, Kitt Peak-Spacewatch MPS 592360
2015 03 25.29397 12 22 35.22 +03 59 00.9   691 – Steward Observatory, Kitt Peak-Spacewatch MPS 592360
2015 03 25.32383 12 22 33.75 +03 59 12.5   691 – Steward Observatory, Kitt Peak-Spacewatch MPS 592360
2015 04 19.15803 12 04 24.18 +06 08 04.7 21.1 V 691 – Steward Observatory, Kitt Peak-Spacewatch MPS 603169
2015 04 19.18395 12 04 23.23 +06 08 10.7 21.1 V 691 – Steward Observatory, Kitt Peak-Spacewatch MPS 603169
2015 04 19.20988 12 04 22.35 +06 08 15.4 20.9 V 691 – Steward Observatory, Kitt Peak-Spacewatch MPS 603169
2015 04 20.60318 12 03 35.73 +06 12 45.7 21.3 R D29 – Purple Mountain Observatory, XuYi Station MPS 603169
2015 04 20.62964 12 03 34.82 +06 12 50.1 21.3 R D29 – Purple Mountain Observatory, XuYi Station MPS 603169
2017 10 15.34010 02 45 46.52 +08 08 37.2 21.0 G G96 – Mt. Lemmon Survey MPS 871422
2017 10 15.34536 02 45 46.26 +08 08 35.7 20.9 G G96 – Mt. Lemmon Survey MPS 871422
2017 10 15.35058 02 45 46.05 +08 08 34.8 20.9 G G96 – Mt. Lemmon Survey MPS 871422
2017 10 15.35579 02 45 45.81 +08 08 33.6 21.1 G G96 – Mt. Lemmon Survey MPS 871422
2017 10 18.48065 02 43 24.715 +07 53 22.60 20.9 w F51 – Pan-STARRS 1, Haleakala MPS 828067
2017 10 18.49423 02 43 24.034 +07 53 18.72 21.0 w F51 – Pan-STARRS 1, Haleakala MPS 828067
2017 10 18.50779 02 43 23.410 +07 53 14.69 21.0 w F51 – Pan-STARRS 1, Haleakala MPS 828067
2017 10 18.52139 02 43 22.745 +07 53 10.99 20.9 w F51 – Pan-STARRS 1, Haleakala MPS 828067
2017 10 23.30487 02 39 31.59 +07 29 55.6 21.5 G G96 – Mt. Lemmon Survey MPS 831568
2017 10 23.31008 02 39 31.30 +07 29 54.4 21.4 G G96 – Mt. Lemmon Survey MPS 831568
2017 10 23.31527 02 39 31.03 +07 29 53.1 21.0 G G96 – Mt. Lemmon Survey MPS 831568
2017 10 23.32052 02 39 30.77 +07 29 51.3 21.1 G G96 – Mt. Lemmon Survey MPS 831568
2017 10 28.47558 02 35 07.421 +07 05 28.90 20.9 w F51 – Pan-STARRS 1, Haleakala MPS 834183
2017 10 28.48824 02 35 06.746 +07 05 25.33 20.8 w F51 – Pan-STARRS 1, Haleakala MPS 834183
2017 10 28.50093 02 35 06.059 +07 05 21.80 20.9 w F51 – Pan-STARRS 1, Haleakala MPS 834183
2017 11 17.26345 02 18 32.47 +05 51 05.4 21.4 G G96 – Mt. Lemmon Survey MPS 838985
2017 11 17.26867 02 18 32.25 +05 51 04.9 21.3 G G96 – Mt. Lemmon Survey MPS 838985
2017 11 17.27386 02 18 32.01 +05 51 04.0 20.9 G G96 – Mt. Lemmon Survey MPS 838985
2017 11 17.27910 02 18 31.78 +05 51 03.1 20.8 G G96 – Mt. Lemmon Survey MPS 838985
2017 11 17.39830 02 18 26.435 +05 50 45.57 21.3 w F51 – Pan-STARRS 1, Haleakala MPS 838985
2017 11 17.41060 02 18 25.857 +05 50 43.56 21.2 w F51 – Pan-STARRS 1, Haleakala MPS 838985
2017 11 17.42295 02 18 25.280 +05 50 41.59 21.1 w F51 – Pan-STARRS 1, Haleakala MPS 838985
2017 11 17.43517 02 18 24.705 +05 50 39.67 21.1 w F51 – Pan-STARRS 1, Haleakala MPS 838985
2017 11 24.24806 02 13 44.76 +05 36 29.5 21.4 G G96 – Mt. Lemmon Survey MPS 842774
2017 11 24.25328 02 13 44.52 +05 36 28.8 20.9 G G96 – Mt. Lemmon Survey MPS 842774
2017 11 24.25851 02 13 44.35 +05 36 28.0 21.8 G G96 – Mt. Lemmon Survey MPS 842774
2017 11 24.26372 02 13 44.15 +05 36 27.4 21.2 G G96 – Mt. Lemmon Survey MPS 842774
2017 11 24.32429 02 13 42.024 +05 36 23.08 21.3 w F51 – Pan-STARRS 1, Haleakala MPS 844980
2017 11 24.33680 02 13 41.520 +05 36 21.70 21.3 w F51 – Pan-STARRS 1, Haleakala MPS 844980
2017 11 24.34927 02 13 41.031 +05 36 20.62 21.3 w F51 – Pan-STARRS 1, Haleakala MPS 844980
2017 11 24.36178 02 13 40.560 +05 36 19.67 21.5 w F51 – Pan-STARRS 1, Haleakala MPS 844980
2017 12 11.30351 02 06 26.662 +05 33 15.59 21.5 w F51 – Pan-STARRS 1, Haleakala MPS 849006
2017 12 11.30415 02 06 26.647 +05 33 15.53 21.5 w F51 – Pan-STARRS 1, Haleakala MPS 849006
